Temperature
20 20 20 19 19 19 18 18 18 18 18 18 18 18 17 17 17 17 17 17 17 16 16 16 16 16 16 16 16 15 15 15 15 15 15 15 15 15 15 15 15 15 15
20 20 19 19 19 18 18 18 18 18 18 18 17 17 17 17 17 17 16 16 16 16 16 16 16 16 16 16 15 15 15 15 15 15 15 15 15 15 15 15 15 15 14
20 20 19 19 19 18 18 18 18 18 17 17 17 17 17 17 16 16 16 16 16 16 16 16 15 15 15 15 15 15 15 15 14 14 14 14 14 14 14 14 14 14 14
20 19 19 19 19 18 18 18 18 17 17 17 17 17 17 16 16 16 16 16 16 16 15 15 15 15 15 15 15 15 14 14 14 14 14 14 14 14 14 14 14 14 14
19 19 19 19 18 18 18 18 17 17 17 17 16 16 16 16 16 16 16 15 15 15 15 15 15 14 14 14 14 14 14 14 14 14 13 14 14 14 13 13 13 13 13
19 19 18 18 18 18 17 17 17 17 17 16 16 16 16 16 16 15 15 15 15 15 15 14 14 14 14 14 14 14 14 13 13 13 13 13 13 13 13 13 13 13 13
19 18 18 18 18 17 17 17 17 17 16 16 16 16 16 16 15 15 15 15 14 14 14 14 14 14 14 14 14 14 13 13 13 13 13 13 13 13 13 13 13 13 13
18 18 18 17 17 17 17 17 16 16 16 16 16 15 15 15 15 15 15 14 14 14 14 14 14 14 14 14 14 13 13 13 13 13 13 13 13 13 13 13 12 12 13
18 18 17 17 17 17 17 17 16 16 16 16 15 15 15 15 15 15 14 14 14 14 14 14 14 14 14 13 13 13 13 13 13 13 13 13 13 13 13 12 12 12 12
17 17 17 17 17 17 16 16 16 16 15 15 15 15 15 15 14 14 14 14 14 14 14 14 14 13 13 13 13 13 13 13 13 13 13 13 13 13 13 12 12 12 12
17 17 17 17 16 16 16 16 16 15 15 15 15 14 14 14 14 14 14 14 14 13 13 13 13 13 13 13 13 13 13 13 13 13 13 13 13 13 12 12 12 12 12
16 16 16 16 16 16 16 15 15 15 15 15 14 14 14 14 14 14 14 13 13 13 13 13 13 13 13 13 12 12 12 12 12 12 12 12 12 12 12 12 12 12 12
16 16 15 15 15 15 15 15 15 14 14 14 14 14 14 14 14 14 13 13 13 13 13 13 12 12 12 12 12 12 12 12 12 12 12 12 12 12 12 12 12 12 12
15 15 15 15 15 15 14 14 14 14 14 14 14 13 13 13 13 13 13 13 13 13 12 12 12 12 12 12 12 12 12 12 12 12 12 12 12 12 12 12 12 11 11
15 14 14 14 14 14 14 14 14 14 13 13 13 13 13 13 13 13 13 13 13 12 12 12 12 12 12 12 12 12 12 12 12 12 11 11 11 11 11 11 11 11 11
14 14 14 14 14 14 13 13 13 13 13 13 13 13 13 13 13 13 13 12 12 12 12 12 12 12 12 12 12 12 11 11 11 11 11 11 11 11 11 11 11 10 10
14 14 13 13 13 13 13 13 13 13 13 13 13 13 12 12 12 12 12 12 12 12 12 12 11 11 11 11 11 11 11 11 11 11 11 11 11 10 10 10 10 10 10
14 13 13 13 13 13 13 12 12 12 12 13 13 12 12 12 12 12 12 12 12 12 11 11 11 11 11 11 11 11 11 11 11 11 11 10 10 10 10 10 10 9 9
13 13 13 13 12 12 12 12 12 12 12 12 12 12 12 12 12 12 12 11 11 11 11 11 11 11 11 11 11 11 11 11 11 11 10 10 10 10 10 9 9 9 9
13 13 12 12 12 12 12 12 12 12 12 12 11 12 12 12 11 11 11 11 11 11 11 11 11 11 11 11 10 10 10 10 10 10 10 10 10 9 9 9 9 9 9
12 12 12 12 12 12 12 12 12 11 11 11 11 11 11 11 11 11 11 11 11 10 10 10 10 10 10 10 10 10 10 10 10 10 10 9 9 9 9 9 9 9 8
12 12 12 12 12 12 12 12 11 11 11 11 11 11 11 11 10 10 10 10 10 10 10 10 10 10 10 10 10 10 10 10 9 9 9 9 9 9 9 8 8 8 8
12 11 11 11 11 11 11 11 11 11 11 11 10 10 10 10 10 10 10 10 10 10 10 10 10 10 10 9 9 9 9 9 9 9 9 9 9 8 8 8 8 8 8
11 11 11 11 11 11 11 11 11 11 10 10 10 10 10 10 10 9 9 9 9 9 9 9 9 9 9 9 9 9 9 9 9 8 8 8 8 8 8 8 8 8 7
11 11 11 10 10 10 10 10 10 10 10 10 10 10 10 9 9 9 9 9 9 9 9 9 8 8 9 9 9 9 8 8 8 8 8 8 8 8 8 8 7 7 7
10 10 10 10 10 10 10 10 9 9 9 9 9 9 9 9 9 9 9 9 8 8 8 8 8 8 8 8 8 8 8 8 8 8 8 8 7 7 7 7 7 7 7
Wind_Speed
6 5 5 4 4 4 3 3 2 2 2 1 1 1 0 0 1 0 0 0 0 1 1 1 2 1 1 1 0 0 0 1 2 3 2 2 2 3 2 2 3 3 4
5 5 5 4 4 4 4 3 3 2 2 2 2 1 1 1 0 1 1 1 0 1 1 2 2 1 1 1 1 1 1 1 2 3 2 2 2 3 2 2 2 3 3
4 4 4 4 4 4 4 4 3 3 2 2 2 1 1 0 1 1 1 1 1 1 1 1 2 1 2 1 1 1 1 1 1 1 2 2 2 2 2 2 3 2 3
5 5 4 4 5 5 4 3 3 3 2 2 1 1 1 1 1 1 0 0 1 1 1 1 2 2 2 2 1 1 1 1 1 1 2 2 2 2 1 2 3 3 3
4 4 4 3 3 3 3 3 3 2 2 2 1 1 1 1 1 1 1 0 0 1 2 2 2 2 2 2 1 1 1 1 1 1 2 2 2 2 2 2 3 3 4
4 3 3 2 3 3 3 3 2 2 1 2 1 1 1 1 0 1 2 0 0 1 2 3 3 3 3 3 2 1 1 2 2 2 2 3 4 3 3 2 2 2 3
2 2 2 2 2 2 2 2 2 2 2 2 1 1 1 2 1 1 2 2 2 2 3 3 3 3 3 3 3 3 3 4 4 4 4 5 5 5 3 3 3 3 4
1 1 1 1 1 1 2 2 2 2 2 2 2 2 2 2 1 1 2 2 2 3 3 3 3 3 3 2 2 2 3 4 5 4 5 6 6 5 4 4 4 3 4
1 0 1 1 1 1 2 2 2 2 2 2 2 2 2 3 3 3 2 1 2 3 3 3 2 3 4 2 1 3 4 6 6 5 5 6 6 6 4 1 1 1 3
1 1 0 1 2 2 3 2 2 2 2 2 2 2 3 3 4 3 3 2 2 3 3 3 3 3 4 3 2 2 4 6 5 5 4 5 4 4 4 4 4 3 2
1 1 0 1 2 2 2 1 1 1 1 1 2 2 2 3 3 2 2 2 3 3 3 3 4 5 5 5 3 3 6 5 3 3 3 4 3 3 3 2 3 4 4
1 1 1 1 1 1 1 1 1 1 1 1 1 2 3 3 2 2 2 2 3 2 3 3 4 5 5 5 4 5 6 3 2 2 2 3 3 3 3 3 3 4 5
2 2 1 1 1 0 1 2 1 1 1 1 1 2 3 3 3 3 3 3 3 3 3 4 5 5 5 4 5 6 4 1 1 2 3 4 3 3 2 2 3 2 2
2 2 1 1 1 1 0 1 1 1 2 2 2 2 3 2 2 2 2 2 2 2 3 4 5 4 3 4 4 4 2 2 2 3 3 3 2 2 2 2 2 2 2
1 1 1 0 0 1 0 1 2 2 3 3 3 3 3 3 5 4 2 1 1 2 1 2 2 2 3 3 3 3 2 1 2 2 2 2 2 2 2 2 1 1 1
1 1 1 1 0 0 0 1 2 2 4 4 5 4 3 5 4 3 2 3 2 1 2 0 2 2 2 3 3 3 2 2 3 3 2 2 2 2 2 2 1 1 1
1 1 1 1 1 1 1 1 2 4 4 4 4 3 3 4 3 3 2 2 1 3 1 2 2 3 3 3 2 3 3 3 3 2 2 2 2 2 1 1 2 2 1
1 2 1 2 1 2 2 2 2 2 2 3 3 3 3 3 3 3 1 2 1 1 1 2 3 3 3 3 3 3 3 3 2 2 2 2 2 1 1 1 1 1 1
1 1 1 1 2 2 2 1 2 2 1 2 2 2 3 2 2 2 1 1 0 2 2 3 3 3 3 4 3 3 2 2 1 1 1 1 1 1 1 1 1 1 1
2 3 2 1 1 1 1 1 1 1 1 2 2 2 1 1 1 1 1 1 1 2 3 3 3 3 3 3 2 1 1 1 1 1 2 2 1 1 1 1 1 1 1
2 3 3 1 1 1 1 1 2 2 2 2 3 3 2 2 2 2 2 2 2 3 3 3 3 2 2 2 1 1 1 1 2 2 2 2 1 1 1 1 1 1 0
1 2 2 2 2 1 2 2 1 1 1 2 2 2 1 1 1 1 1 2 2 2 2 2 2 1 1 1 1 1 1 2 2 2 2 2 1 1 1 1 1 1 0
2 2 2 2 2 2 2 1 1 1 1 1 1 1 1 1 1 1 1 2 1 1 1 1 1 1 1 1 0 1 2 2 3 3 2 2 1 1 1 1 2 1 1
2 2 2 2 2 1 1 1 1 1 0 0 0 0 1 1 1 2 2 1 1 1 1 1 1 1 2 2 2 2 2 2 2 1 2 1 1 1 1 1 2 2 2
1 1 2 2 1 1 1 1 1 1 1 1 1 1 1 2 2 1 1 0 1 1 1 1 1 1 2 3 3 3 3 3 3 2 1 0 1 1 1 2 2 2 2
1 1 1 1 1 1 1 1 1 1 2 2 2 2 2 2 2 1 0 0 1 1 1 1 2 2 3 3 4 4 4 4 4 3 1 0 0 1 1 1 2 2 1
Wind_Direction
191 188 182 182 179 170 175 186 177 171 172 168 167 177 228 32 56 64 325 337 23 348 347 6 337 346 358 331 350 350 178 167 234 282 280 300 313 316 321 287 264 255 256
187 181 180 178 174 178 187 192 181 180 187 181 174 183 203 234 248 212 273 303 293 328 329 341 323 343 352 322 351 314 277 226 200 270 293 316 301 291 300 303 296 272 260
172 169 177 181 181 188 194 194 190 190 195 188 165 170 204 253 277 244 256 311 298 283 302 306 304 321 316 317 326 314 294 311 235 236 277 286 294 311 330 318 310 301 288
170 173 181 191 194 193 192 189 190 186 186 196 175 184 201 232 249 235 176 356 314 299 301 295 293 282 269 269 284 284 291 314 303 282 284 292 287 294 331 312 316 308 298
162 172 192 193 186 178 171 173 175 178 181 165 157 200 251 245 268 200 196 143 333 327 321 315 306 302 279 261 263 261 274 275 289 286 286 300 302 315 289 265 282 293 286
139 164 178 167 162 169 175 178 177 176 167 137 155 185 242 288 274 162 161 166 279 282 298 305 301 297 292 284 284 272 239 241 252 253 267 271 275 267 266 263 271 298 288
126 142 149 155 162 179 178 167 174 177 165 158 183 196 241 278 261 193 177 200 227 250 265 286 301 312 299 283 292 302 295 281 249 225 244 255 255 254 252 264 260 255 255
93 131 139 140 162 174 165 179 192 184 175 181 189 207 231 282 270 214 200 216 234 251 252 253 265 287 302 283 287 309 300 286 270 246 237 249 250 244 227 232 237 262 277
53 178 189 168 160 163 171 183 184 171 192 200 210 225 243 278 274 239 219 219 247 265 265 267 254 266 296 287 279 297 304 301 293 285 276 276 277 271 251 225 268 278 288
342 306 255 181 178 188 190 189 187 183 204 211 237 248 253 276 282 251 228 207 242 273 291 292 278 275 290 287 251 266 289 293 305 315 312 306 295 288 267 212 212 232 256
338 13 344 232 206 192 183 179 168 177 187 209 244 269 271 278 293 266 219 210 229 260 281 288 286 292 295 296 278 255 265 280 303 299 302 308 311 305 285 248 215 210 227
35 29 345 322 248 179 157 173 166 175 181 229 254 282 289 288 272 252 220 223 219 225 258 272 282 294 300 306 299 289 294 314 324 316 306 299 293 293 291 287 255 234 229
35 10 347 352 351 102 160 180 186 198 210 244 249 265 287 297 293 273 255 257 240 229 261 279 293 296 299 303 303 305 312 315 301 294 285 278 271 271 293 310 308 295 283
37 348 337 11 349 350 281 189 191 221 234 251 250 255 275 292 294 298 291 285 290 291 297 309 308 300 301 301 311 313 294 261 241 258 276 284 297 312 309 304 297 317 327
9 334 323 299 254 323 305 250 221 230 220 211 226 227 236 261 261 247 221 241 243 260 313 352 356 348 340 329 319 314 310 308 286 280 280 299 311 318 307 304 298 303 310
3 329 314 282 284 316 44 347 341 281 279 241 229 219 242 249 251 245 242 236 229 171 112 328 293 284 279 282 292 300 294 278 271 273 272 273 276 286 301 319 338 319 306
250 275 295 287 259 265 248 238 307 327 328 303 281 260 253 265 260 259 253 243 209 134 132 254 267 265 266 267 268 267 270 271 271 264 260 267 273 281 303 323 327 336 329
269 262 256 258 248 235 233 238 236 255 300 321 302 268 266 269 267 279 288 85 39 107 233 255 264 263 265 264 264 263 270 284 288 280 273 275 271 264 265 283 269 259 273
314 284 258 256 257 240 237 238 244 253 267 298 330 327 295 284 306 324 66 93 258 269 270 269 263 261 263 262 259 259 256 258 271 280 290 282 278 264 262 269 263 264 255
338 319 309 273 276 271 250 244 266 271 271 281 280 275 293 66 29 325 261 236 254 265 264 272 277 265 260 262 262 257 260 288 302 295 289 287 278 265 252 247 234 223 237
330 324 323 310 266 247 233 241 250 252 255 261 263 257 201 185 219 240 241 246 251 261 266 272 279 282 275 273 270 256 248 269 276 282 286 287 282 275 281 270 255 238 264
314 309 308 304 296 279 256 241 231 243 270 277 293 307 239 224 213 237 270 280 274 265 259 259 273 280 275 268 253 244 239 258 276 283 287 285 278 258 250 270 275 272 291
331 338 340 325 315 303 299 288 267 251 261 264 269 316 277 266 264 254 265 276 302 322 335 20 17 349 347 345 319 240 240 255 259 253 256 264 265 263 253 258 263 272 277
337 347 355 346 347 358 353 349 350 349 318 292 321 280 269 262 262 269 276 288 324 341 354 34 47 2 350 355 352 337 316 304 300 281 259 243 249 253 248 263 271 266 258
350 348 351 345 344 334 335 356 4 358 348 334 325 306 296 291 288 288 288 346 41 27 1 15 32 2 352 359 3 353 347 359 4 3 347 278 256 253 246 255 261 256 253
338 337 325 329 346 342 357 10 2 347 329 324 327 318 306 291 295 307 342 59 42 16 3 14 16 5 358 359 353 358 4 3 3 9 19 60 14 309 288 277 280 267 251
Height
1515 1515 1515 1515 1516 1516 1515 1515 1515 1514 1514 1514 1514 1513 1512 1512 1511 1511 1510 1509 1508 1507 1506 1506 1505 1504 1503 1502 1502 1501 1500 1499 1497 1496 1495 1494 1493 1492 1490 1490 1489 1488 1487
1513 1514 1514 1514 1514 1514 1513 1513 1514 1513 1513 1512 1512 1511 1511 1510 1510 1509 1508 1507 1506 1505 1504 1503 1503 1502 1501 1500 1499 1498 1497 1496 1495 1493 1492 1491 1490 1489 1488 1487 1486 1485 1485
1511 1512 1512 1512 1512 1511 1511 1512 1512 1511 1511 1510 1510 1509 1509 1508 1507 1507 1506 1505 1504 1503 1502 1501 1500 1500 1498 1498 1497 1495 1495 1494 1493 1491 1490 1489 1488 1487 1485 1484 1484 1482 1481
1510 1510 1509 1510 1510 1510 1510 1510 1510 1510 1509 1509 1508 1508 1507 1506 1505 1505 1504 1503 1502 1501 1500 1499 1498 1498 1497 1496 1494 1493 1492 1491 1490 1489 1488 1486 1485 1484 1483 1481 1480 1479 1478
1508 1508 1508 1508 1508 1508 1508 1508 1508 1508 1508 1507 1506 1506 1505 1504 1503 1502 1502 1501 1500 1499 1498 1497 1496 1496 1494 1493 1492 1491 1490 1489 1487 1486 1485 1484 1482 1481 1480 1478 1477 1475 1474
1507 1506 1506 1506 1506 1506 1506 1506 1506 1506 1505 1505 1504 1504 1503 1502 1502 1501 1500 1499 1498 1497 1496 1495 1494 1493 1492 1491 1490 1489 1488 1487 1485 1484 1483 1481 1480 1479 1477 1476 1474 1472 1470
1505 1505 1505 1504 1504 1504 1504 1504 1504 1503 1503 1503 1503 1502 1501 1500 1500 1499 1498 1497 1496 1495 1494 1493 1492 1491 1490 1489 1488 1487 1486 1485 1483 1482 1480 1478 1477 1476 1475 1473 1471 1469 1468
1504 1503 1503 1503 1502 1502 1502 1501 1501 1501 1501 1501 1500 1500 1499 1498 1498 1497 1496 1495 1494 1493 1492 1491 1490 1489 1488 1487 1485 1484 1483 1481 1480 1479 1477 1476 1474 1473 1472 1470 1469 1467 1466
1502 1501 1501 1501 1500 1500 1499 1499 1499 1499 1499 1498 1498 1497 1496 1495 1495 1494 1494 1492 1491 1490 1490 1489 1488 1486 1486 1484 1483 1481 1479 1478 1477 1476 1474 1473 1471 1470 1468 1467 1465 1464 1462
1500 1499 1499 1499 1498 1498 1497 1497 1497 1497 1496 1496 1495 1495 1494 1493 1493 1492 1491 1490 1488 1487 1487 1486 1485 1484 1483 1482 1480 1478 1476 1475 1473 1472 1471 1469 1468 1466 1465 1463 1462 1460 1459
1498 1498 1497 1497 1496 1495 1495 1495 1495 1494 1493 1493 1492 1492 1491 1490 1489 1489 1488 1487 1486 1484 1483 1482 1482 1481 1480 1479 1477 1475 1474 1472 1470 1468 1466 1465 1464 1462 1461 1460 1459 1457 1456
1497 1496 1495 1494 1493 1493 1493 1492 1492 1491 1490 1490 1489 1488 1488 1487 1486 1486 1485 1484 1483 1482 1480 1479 1479 1478 1477 1476 1474 1473 1471 1469 1467 1465 1463 1461 1460 1458 1457 1456 1455 1454 1453
1495 1493 1492 1491 1491 1490 1490 1489 1489 1489 1488 1487 1486 1485 1485 1484 1484 1483 1482 1481 1480 1479 1478 1477 1476 1475 1474 1472 1471 1470 1468 1466 1464 1461 1459 1458 1457 1456 1455 1453 1452 1451 1450
1492 1491 1490 1489 1488 1488 1487 1487 1486 1486 1485 1484 1483 1483 1482 1481 1481 1480 1479 1478 1477 1476 1475 1474 1473 1472 1471 1469 1468 1466 1465 1463 1461 1459 1457 1456 1454 1453 1452 1450 1449 1447 1446
1490 1489 1488 1486 1485 1485 1484 1484 1483 1483 1483 1482 1481 1480 1479 1478 1478 1477 1476 1475 1474 1473 1472 1470 1469 1468 1467 1466 1464 1463 1462 1460 1458 1457 1455 1453 1452 1450 1449 1448 1446 1445 1443
1488 1487 1485 1484 1483 1482 1481 1481 1480 1480 1480 1479 1478 1477 1477 1476 1476 1475 1473 1472 1471 1470 1468 1467 1465 1464 1463 1462 1461 1459 1458 1457 1456 1454 1453 1452 1450 1448 1447 1445 1444 1443 1441
1486 1485 1483 1482 1481 1480 1479 1478 1478 1477 1477 1476 1475 1475 1474 1474 1473 1472 1470 1469 1468 1466 1465 1463 1462 1461 1460 1459 1458 1457 1455 1455 1453 1452 1450 1449 1447 1446 1444 1443 1442 1440 1439
1484 1482 1481 1480 1478 1478 1477 1476 1475 1474 1473 1472 1472 1472 1471 1471 1470 1469 1468 1466 1464 1462 1461 1460 1459 1458 1457 1456 1455 1454 1453 1452 1450 1449 1448 1446 1445 1444 1442 1440 1440 1438 1437
1482 1480 1478 1477 1476 1476 1475 1474 1473 1472 1471 1470 1469 1468 1468 1467 1467 1466 1464 1462 1460 1459 1458 1458 1457 1455 1454 1453 1452 1451 1450 1449 1448 1446 1445 1444 1443 1442 1440 1439 1438 1437 1435
1479 1478 1476 1475 1474 1473 1473 1472 1471 1470 1469 1468 1467 1466 1465 1464 1463 1462 1461 1460 1458 1457 1456 1455 1454 1453 1452 1451 1450 1448 1447 1446 1445 1443 1442 1441 1440 1439 1438 1436 1435 1434 1434
1477 1476 1475 1473 1472 1471 1471 1470 1469 1468 1467 1466 1465 1464 1463 1461 1460 1459 1458 1457 1456 1454 1453 1452 1451 1450 1449 1448 1447 1446 1445 1443 1442 1441 1440 1438 1437 1436 1435 1434 1433 1433 1432
1476 1474 1473 1472 1471 1470 1469 1468 1467 1466 1465 1464 1463 1462 1461 1460 1458 1457 1456 1455 1453 1452 1451 1450 1448 1447 1446 1445 1444 1443 1441 1440 1439 1438 1437 1436 1434 1434 1433 1432 1431 1431 1430
1474 1473 1471 1470 1469 1468 1467 1466 1465 1464 1463 1462 1461 1460 1459 1458 1456 1455 1454 1453 1452 1450 1449 1447 1446 1445 1443 1442 1441 1440 1439 1438 1437 1436 1434 1433 1432 1431 1430 1430 1429 1428 1428
1473 1471 1470 1469 1467 1466 1465 1464 1463 1462 1461 1460 1459 1458 1457 1455 1454 1453 1452 1451 1450 1449 1447 1445 1444 1443 1441 1440 1439 1438 1436 1435 1434 1433 1432 1431 1429 1429 1428 1427 1427 1426 1426
1471 1470 1469 1467 1465 1464 1463 1462 1461 1460 1459 1458 1457 1456 1455 1454 1453 1451 1450 1449 1448 1447 1446 1444 1442 1441 1440 1438 1437 1435 1434 1433 1432 1431 1429 1428 1427 1426 1425 1424 1424 1424 1423
1470 1469 1467 1466 1464 1463 1462 1460 1459 1458 1457 1456 1455 1454 1453 1452 1451 1450 1449 1448 1446 1445 1444 1442 1441 1439 1438 1436 1435 1433 1432 1431 1430 1428 1427 1426 1424 1423 1422 1421 1421 1421 1421